SXS5MY LTAI-LTFO

Flight info

Callsign SXS5MY
Flight time 1h 29m
Altitude 37000
Route ADBEL UR55 MUT UA285 SIV UW706 TBN UN37 ZUBRE
Aircraft B38M/M-SDE1FGHILORVWXY/HB1

Departure

Time 2026-04-15 20:39
Airport Antalya International Airport (LTAI)

Arrival

Time 2026-04-15 22:09
Airport Rize–Artvin Airport (LTFO)
Time Latitude Longitude Altitude Speed Heading
2026-04-15 19:52 36.89709 30.80223 201 ft 0 kts 317°
2026-04-15 20:23 36.89708 30.80224 194 ft 1 kts 317°
2026-04-15 20:23 36.89697 30.80237 200 ft 3 kts 316°
2026-04-15 20:23 36.89683 30.80255 206 ft 3 kts 315°
2026-04-15 20:24 36.89668 30.80273 202 ft 3 kts 316°
2026-04-15 20:24 36.89640 30.80300 198 ft 3 kts 339°
2026-04-15 20:24 36.89622 30.80304 202 ft 3 kts 13°
2026-04-15 20:25 36.89607 30.80294 206 ft 3 kts 52°
2026-04-15 20:25 36.89598 30.80272 204 ft 3 kts 76°
2026-04-15 20:25 36.89595 30.80249 204 ft 2 kts 93°
2026-04-15 20:25 36.89596 30.80235 203 ft 2 kts 96°
2026-04-15 20:26 36.89598 30.80210 198 ft 3 kts 96°
2026-04-15 20:26 36.89600 30.80192 205 ft 1 kts 96°
2026-04-15 20:26 36.89600 30.80191 205 ft 0 kts 96°
2026-04-15 20:30 36.89599 30.80203 197 ft 2 kts 96°
2026-04-15 20:30 36.89597 30.80221 203 ft 2 kts 96°
2026-04-15 20:31 36.89595 30.80245 204 ft 4 kts 96°
2026-04-15 20:31 36.89591 30.80287 209 ft 6 kts 96°
2026-04-15 20:31 36.89586 30.80346 194 ft 8 kts 96°
2026-04-15 20:31 36.89579 30.80423 194 ft 10 kts 94°
2026-04-15 20:32 36.89572 30.80516 194 ft 12 kts 97°
2026-04-15 20:32 36.89562 30.80614 199 ft 5 kts 96°
2026-04-15 20:32 36.89556 30.80651 194 ft 6 kts 115°
2026-04-15 20:32 36.89519 30.80682 194 ft 8 kts 174°
2026-04-15 20:33 36.89459 30.80676 198 ft 10 kts 187°
2026-04-15 20:33 36.89383 30.80665 197 ft 12 kts 186°
2026-04-15 20:33 36.89290 30.80653 205 ft 15 kts 186°
2026-04-15 20:33 36.89181 30.80637 199 ft 17 kts 187°
2026-04-15 20:34 36.89055 30.80619 194 ft 19 kts 186°
2026-04-15 20:34 36.88916 30.80601 196 ft 22 kts 186°
2026-04-15 20:34 36.88759 30.80580 203 ft 23 kts 186°
2026-04-15 20:34 36.88593 30.80557 199 ft 25 kts 187°
2026-04-15 20:35 36.88417 30.80532 200 ft 26 kts 186°
2026-04-15 20:35 36.88318 30.80519 199 ft 11 kts 186°
2026-04-15 20:35 36.88235 30.80508 198 ft 10 kts 187°
2026-04-15 20:35 36.88184 30.80503 197 ft 7 kts 175°
2026-04-15 20:36 36.88149 30.80527 200 ft 5 kts 128°
2026-04-15 20:36 36.88148 30.80530 201 ft 0 kts 122°
2026-04-15 20:36 36.88142 30.80544 203 ft 3 kts 111°
2026-04-15 20:36 36.88138 30.80584 194 ft 6 kts 96°
2026-04-15 20:37 36.88132 30.80652 192 ft 10 kts 96°
2026-04-15 20:37 36.88128 30.80698 192 ft 2 kts 94°
2026-04-15 20:37 36.88130 30.80718 192 ft 3 kts 74°
2026-04-15 20:37 36.88145 30.80733 200 ft 3 kts 13°
2026-04-15 20:38 36.88149 30.80733 198 ft 0 kts
2026-04-15 20:38 36.88170 30.80735 206 ft 8 kts
2026-04-15 20:38 36.88356 30.80761 193 ft 60 kts
2026-04-15 20:39 36.89013 30.80847 193 ft 127 kts
2026-04-15 20:39 36.90077 30.80989 262 ft 173 kts
2026-04-15 20:39 36.91311 30.81149 854 ft 183 kts
2026-04-15 20:39 36.92535 30.81526 1708 ft 176 kts 22°
2026-04-15 20:40 36.93690 30.82163 2261 ft 195 kts 22°
2026-04-15 20:40 36.95004 30.82878 2708 ft 217 kts 22°
2026-04-15 20:40 36.96417 30.83650 3574 ft 217 kts 23°
2026-04-15 20:40 36.97761 30.84605 4241 ft 235 kts 44°
2026-04-15 20:41 36.98596 30.86425 4864 ft 245 kts 80°
2026-04-15 20:41 36.98583 30.88549 5782 ft 253 kts 95°
2026-04-15 20:41 36.98399 30.90824 6366 ft 271 kts 94°
2026-04-15 20:41 36.98215 30.93191 7198 ft 274 kts 94°
2026-04-15 20:42 36.98038 30.95589 8070 ft 280 kts 94°
2026-04-15 20:42 36.97856 30.98043 8899 ft 286 kts 94°
2026-04-15 20:42 36.97670 31.00543 9734 ft 291 kts 93°
2026-04-15 20:42 36.97481 31.03060 10418 ft 301 kts 93°
2026-04-15 20:43 36.97279 31.05746 10788 ft 320 kts 94°
2026-04-15 20:43 36.97063 31.08606 11182 ft 338 kts 94°
2026-04-15 20:43 36.96836 31.11585 11701 ft 350 kts 94°
2026-04-15 20:43 36.96605 31.14622 12504 ft 352 kts 94°
2026-04-15 20:44 36.96371 31.17694 13225 ft 358 kts 94°
2026-04-15 20:44 36.96213 31.19758 13726 ft 361 kts 94°
2026-04-15 20:44 36.95889 31.23971 14680 ft 366 kts 94°
2026-04-15 20:44 36.95726 31.26083 15179 ft 368 kts 95°
2026-04-15 20:45 36.95480 31.29272 15925 ft 370 kts 95°
2026-04-15 20:45 36.95230 31.32498 16585 ft 375 kts 95°
2026-04-15 20:45 36.94976 31.35756 17283 ft 378 kts 95°
2026-04-15 20:45 36.94720 31.39034 17948 ft 381 kts 96°
2026-04-15 20:46 36.94460 31.42352 18542 ft 385 kts 96°
2026-04-15 20:46 36.94198 31.45695 19099 ft 388 kts 96°
2026-04-15 20:46 36.93931 31.49073 19633 ft 392 kts 96°
2026-04-15 20:46 36.93660 31.52487 20162 ft 396 kts 96°
2026-04-15 20:47 36.93386 31.55939 20651 ft 402 kts 96°
2026-04-15 20:47 36.93107 31.59433 21168 ft 406 kts 96°
2026-04-15 20:47 36.92826 31.62927 21659 ft 410 kts 96°
2026-04-15 20:47 36.92541 31.66482 22177 ft 414 kts 96°
2026-04-15 20:48 36.92249 31.70087 22649 ft 419 kts 96°
2026-04-15 20:48 36.91955 31.73723 23137 ft 423 kts 96°
2026-04-15 20:48 36.91656 31.77402 23600 ft 427 kts 96°
2026-04-15 20:48 36.91352 31.81117 23993 ft 431 kts 96°
2026-04-15 20:49 36.91049 31.84825 24344 ft 436 kts 96°
2026-04-15 20:49 36.90739 31.88596 24803 ft 437 kts 96°
2026-04-15 20:49 36.90424 31.92393 25239 ft 440 kts 96°
2026-04-15 20:49 36.90132 31.96204 25660 ft 442 kts 92°
2026-04-15 20:50 36.90063 32.00049 26098 ft 444 kts 91°
2026-04-15 20:50 36.89987 32.03921 26500 ft 446 kts 91°
2026-04-15 20:50 36.89894 32.07805 26910 ft 448 kts 92°
2026-04-15 20:50 36.89793 32.11716 27228 ft 453 kts 92°
2026-04-15 20:51 36.89687 32.15665 27618 ft 455 kts 92°
2026-04-15 20:51 36.89580 32.19613 28090 ft 455 kts 92°
2026-04-15 20:51 36.89471 32.23577 28457 ft 457 kts 92°
2026-04-15 20:51 36.89360 32.27559 28811 ft 460 kts 92°
2026-04-15 20:52 36.89247 32.31556 29194 ft 462 kts 92°
2026-04-15 20:52 36.89132 32.35573 29535 ft 464 kts 92°
2026-04-15 20:52 36.89017 32.39568 29779 ft 469 kts 92°
2026-04-15 20:52 36.88897 32.43658 30112 ft 471 kts 92°
2026-04-15 20:53 36.88780 32.47751 30428 ft 473 kts 92°
2026-04-15 20:53 36.88669 32.51866 30712 ft 475 kts 92°
2026-04-15 20:53 36.88555 32.55996 31020 ft 476 kts 92°
2026-04-15 20:53 36.88440 32.60133 31306 ft 478 kts 92°
2026-04-15 20:54 36.88323 32.64288 31607 ft 480 kts 92°
2026-04-15 20:54 36.88203 32.68467 31863 ft 482 kts 92°
2026-04-15 20:54 36.88082 32.72661 32190 ft 483 kts 92°
2026-04-15 20:54 36.87959 32.76843 32590 ft 481 kts 92°
2026-04-15 20:55 36.87836 32.81014 33006 ft 480 kts 92°
2026-04-15 20:55 36.87711 32.85175 33425 ft 478 kts 93°
2026-04-15 20:55 36.87585 32.89320 33829 ft 477 kts 93°
2026-04-15 20:55 36.87459 32.93458 34148 ft 477 kts 93°
2026-04-15 20:56 36.87331 32.97552 34392 ft 477 kts 93°
2026-04-15 20:56 36.87201 33.01688 34689 ft 477 kts 93°
2026-04-15 20:56 36.87070 33.05838 34932 ft 478 kts 93°
2026-04-15 20:56 36.86937 33.09984 35189 ft 477 kts 93°
2026-04-15 20:57 36.86803 33.14121 35471 ft 477 kts 94°
2026-04-15 20:57 36.86668 33.18261 35734 ft 477 kts 94°
2026-04-15 20:57 36.86574 33.22415 35979 ft 478 kts 88°
2026-04-15 20:57 36.87105 33.26501 36244 ft 478 kts 72°
2026-04-15 20:58 36.88413 33.30305 36449 ft 478 kts 58°
2026-04-15 20:58 36.90430 33.33582 36635 ft 476 kts 43°
2026-04-15 20:58 36.92809 33.36459 36814 ft 476 kts 42°
2026-04-15 20:58 36.95214 33.39307 36982 ft 477 kts 41°
2026-04-15 20:59 36.97612 33.42102 37138 ft 478 kts 41°
2026-04-15 20:59 37.02501 33.47738 37114 ft 476 kts 40°
2026-04-15 21:00 37.07375 33.53344 37127 ft 476 kts 40°
2026-04-15 21:00 37.12260 33.58972 37135 ft 477 kts 40°
2026-04-15 21:01 37.17129 33.64593 37138 ft 477 kts 40°
2026-04-15 21:01 37.22015 33.70243 37127 ft 477 kts 40°
2026-04-15 21:02 37.26893 33.75894 37140 ft 477 kts 40°
2026-04-15 21:02 37.31768 33.81553 37139 ft 477 kts 40°
2026-04-15 21:03 37.36649 33.87229 37134 ft 477 kts 40°
2026-04-15 21:03 37.41505 33.92884 37132 ft 474 kts 40°
2026-04-15 21:04 37.46302 33.98491 37147 ft 475 kts 40°
2026-04-15 21:04 37.51151 34.04173 37131 ft 476 kts 40°
2026-04-15 21:05 37.56004 34.09870 37131 ft 476 kts 40°
2026-04-15 21:05 37.60849 34.15567 37129 ft 476 kts 40°
2026-04-15 21:06 37.65691 34.21272 37107 ft 476 kts 40°
2026-04-15 21:06 37.70525 34.26979 37073 ft 476 kts 40°
2026-04-15 21:07 37.75339 34.32672 37044 ft 476 kts 40°
2026-04-15 21:07 37.80170 34.38395 37021 ft 476 kts 40°
2026-04-15 21:08 37.84986 34.44113 37013 ft 473 kts 40°
2026-04-15 21:08 37.89789 34.49821 37014 ft 474 kts 40°
2026-04-15 21:09 37.94618 34.55560 37053 ft 476 kts 40°
2026-04-15 21:09 37.99423 34.61283 37140 ft 473 kts 39°
2026-04-15 21:10 38.04227 34.67013 37140 ft 473 kts 40°
2026-04-15 21:10 38.08991 34.72707 37168 ft 473 kts 39°
2026-04-15 21:11 38.13775 34.78435 37139 ft 473 kts 39°
2026-04-15 21:11 38.18570 34.84187 37131 ft 474 kts 40°
2026-04-15 21:12 38.23357 34.89940 37169 ft 473 kts 39°
2026-04-15 21:12 38.28125 34.95669 37136 ft 470 kts 39°
2026-04-15 21:13 38.32888 35.01387 37132 ft 471 kts 39°
2026-04-15 21:13 38.37711 35.07060 37134 ft 469 kts 35°
2026-04-15 21:14 38.42703 35.12391 37143 ft 469 kts 36°
2026-04-15 21:14 38.47680 35.17785 37135 ft 469 kts 36°
2026-04-15 21:15 38.52577 35.23223 37134 ft 472 kts 41°
2026-04-15 21:15 38.57196 35.29209 37145 ft 473 kts 41°
2026-04-15 21:16 38.61854 35.35134 37143 ft 472 kts 40°
2026-04-15 21:16 38.66521 35.41063 37132 ft 473 kts 40°
2026-04-15 21:17 38.71189 35.47005 37166 ft 473 kts 40°
2026-04-15 21:17 38.75853 35.52953 37156 ft 472 kts 40°
2026-04-15 21:18 38.80481 35.58866 37157 ft 473 kts 40°
2026-04-15 21:18 38.85141 35.64832 37157 ft 473 kts 40°
2026-04-15 21:19 38.89802 35.70810 37153 ft 473 kts 40°
2026-04-15 21:19 38.94446 35.76736 37161 ft 472 kts 39°
2026-04-15 21:20 38.99171 35.82595 37163 ft 472 kts 39°
2026-04-15 21:20 39.03891 35.88479 37175 ft 473 kts 39°
2026-04-15 21:21 39.08612 35.94377 37171 ft 473 kts 39°
2026-04-15 21:21 39.13336 36.00290 37169 ft 473 kts 39°
2026-04-15 21:22 39.17949 36.06387 37164 ft 476 kts 41°
2026-04-15 21:22 39.22511 36.12514 37174 ft 476 kts 41°
2026-04-15 21:23 39.27102 36.18681 37180 ft 476 kts 41°
2026-04-15 21:23 39.31694 36.24860 37186 ft 477 kts 41°
2026-04-15 21:24 39.36291 36.31058 37166 ft 477 kts 41°
2026-04-15 21:24 39.40879 36.37258 37195 ft 477 kts 40°
2026-04-15 21:25 39.45472 36.43476 37177 ft 477 kts 40°
2026-04-15 21:25 39.50025 36.49654 37175 ft 477 kts 41°
2026-04-15 21:26 39.54604 36.55906 37182 ft 478 kts 41°
2026-04-15 21:26 39.59181 36.62166 37179 ft 477 kts 41°
2026-04-15 21:27 39.63748 36.68425 37193 ft 477 kts 41°
2026-04-15 21:27 39.68307 36.74684 37211 ft 477 kts 40°
2026-04-15 21:28 39.72853 36.80940 37209 ft 476 kts 40°
2026-04-15 21:28 39.77366 36.87162 37207 ft 476 kts 41°
2026-04-15 21:28 39.79434 36.90555 37207 ft 484 kts 55°
2026-04-15 21:29 39.81078 36.94385 37211 ft 486 kts 55°
2026-04-15 21:29 39.84446 37.02007 37219 ft 486 kts 55°
2026-04-15 21:30 39.87775 37.09674 37200 ft 486 kts 56°
2026-04-15 21:30 39.91089 37.17340 37204 ft 486 kts 56°
2026-04-15 21:31 39.95497 37.27565 37179 ft 486 kts 56°
2026-04-15 21:32 40.00457 37.39113 37176 ft 486 kts 56°
2026-04-15 21:32 40.03754 37.46812 37171 ft 486 kts 56°
2026-04-15 21:33 40.07050 37.54527 37172 ft 486 kts 56°
2026-04-15 21:33 40.10355 37.62235 37176 ft 486 kts 56°
2026-04-15 21:34 40.13656 37.69944 37171 ft 486 kts 56°
2026-04-15 21:34 40.16935 37.77625 37165 ft 486 kts 56°
2026-04-15 21:35 40.20246 37.85399 37156 ft 486 kts 56°
2026-04-15 21:35 40.23510 37.93081 37180 ft 486 kts 56°
2026-04-15 21:36 40.26798 38.00838 37167 ft 486 kts 56°
2026-04-15 21:36 40.30076 38.08593 37195 ft 486 kts 56°
2026-04-15 21:37 40.33317 38.16384 37193 ft 486 kts 58°
2026-04-15 21:37 40.36474 38.24215 37209 ft 486 kts 57°
2026-04-15 21:38 40.39724 38.31896 37186 ft 484 kts 56°
2026-04-15 21:38 40.43038 38.39616 37228 ft 485 kts 56°
2026-04-15 21:39 40.46336 38.47337 37204 ft 484 kts 56°
2026-04-15 21:39 40.49618 38.55039 36803 ft 480 kts 56°
2026-04-15 21:39 40.51214 38.58891 36241 ft 478 kts 56°
2026-04-15 21:40 40.52777 38.62719 35907 ft 470 kts 56°
2026-04-15 21:40 40.54319 38.66484 35627 ft 470 kts 56°
2026-04-15 21:40 40.55888 38.70311 35333 ft 480 kts 56°
2026-04-15 21:40 40.57484 38.74214 34786 ft 487 kts 56°
2026-04-15 21:41 40.59091 38.78146 34065 ft 489 kts 55°
2026-04-15 21:41 40.60674 38.82033 33395 ft 487 kts 55°
2026-04-15 21:41 40.62267 38.85946 32814 ft 483 kts 56°
2026-04-15 21:41 40.63842 38.89823 32374 ft 477 kts 56°
2026-04-15 21:42 40.65391 38.93665 31844 ft 474 kts 56°
2026-04-15 21:42 40.66933 38.97492 31242 ft 472 kts 56°
2026-04-15 21:42 40.68470 39.01312 30683 ft 470 kts 56°
2026-04-15 21:42 40.69989 39.05092 30126 ft 466 kts 56°
2026-04-15 21:43 40.71503 39.08865 29524 ft 463 kts 56°
2026-04-15 21:43 40.72997 39.12595 29034 ft 458 kts 56°
2026-04-15 21:43 40.74479 39.16295 28458 ft 455 kts 56°
2026-04-15 21:43 40.75947 39.19967 27977 ft 450 kts 56°
2026-04-15 21:44 40.77405 39.23615 27464 ft 447 kts 57°
2026-04-15 21:44 40.78848 39.27231 26937 ft 443 kts 57°
2026-04-15 21:44 40.80277 39.30818 26458 ft 440 kts 57°
2026-04-15 21:44 40.81599 39.34141 25984 ft 438 kts 57°
2026-04-15 21:45 40.82932 39.37496 25526 ft 435 kts 58°
2026-04-15 21:45 40.84337 39.41034 25039 ft 433 kts 58°
2026-04-15 21:45 40.85719 39.44520 24574 ft 431 kts 58°
2026-04-15 21:45 40.87104 39.48016 24113 ft 429 kts 58°
2026-04-15 21:46 40.88483 39.51502 23596 ft 427 kts 58°
2026-04-15 21:46 40.89857 39.54974 23048 ft 424 kts 58°
2026-04-15 21:46 40.91212 39.58408 22723 ft 415 kts 58°
2026-04-15 21:46 40.92523 39.61736 22664 ft 402 kts 58°
2026-04-15 21:47 40.93798 39.64971 22567 ft 390 kts 58°
2026-04-15 21:47 40.95028 39.68099 22465 ft 379 kts 58°
2026-04-15 21:47 40.96236 39.71171 22134 ft 377 kts 58°
2026-04-15 21:47 40.97460 39.74287 21672 ft 383 kts 58°
2026-04-15 21:48 40.98696 39.77436 21259 ft 386 kts 58°
2026-04-15 21:48 40.99873 39.80648 20822 ft 387 kts 61°
2026-04-15 21:48 41.00976 39.83893 20429 ft 385 kts 61°
2026-04-15 21:48 41.02079 39.87100 20066 ft 382 kts 60°
2026-04-15 21:49 41.03178 39.90289 19681 ft 379 kts 60°
2026-04-15 21:49 41.04269 39.93450 19306 ft 377 kts 60°
2026-04-15 21:49 41.05357 39.96608 18922 ft 375 kts 60°
2026-04-15 21:49 41.06438 39.99745 18542 ft 373 kts 60°
2026-04-15 21:50 41.07509 40.02858 18117 ft 371 kts 60°
2026-04-15 21:50 41.08574 40.05957 17710 ft 369 kts 60°
2026-04-15 21:50 41.09643 40.09069 17321 ft 372 kts 60°
2026-04-15 21:50 41.10704 40.12161 16949 ft 373 kts 60°
2026-04-15 21:51 41.11774 40.15284 16570 ft 371 kts 60°
2026-04-15 21:51 41.12834 40.18388 16166 ft 369 kts 60°
2026-04-15 21:51 41.13890 40.21500 15745 ft 368 kts 61°
2026-04-15 21:51 41.14939 40.24597 15367 ft 366 kts 61°
2026-04-15 21:52 41.15987 40.27691 14814 ft 370 kts 61°
2026-04-15 21:52 41.17032 40.30778 14319 ft 361 kts 61°
2026-04-15 21:52 41.18040 40.33763 13959 ft 348 kts 61°
2026-04-15 21:52 41.19012 40.36642 13602 ft 335 kts 61°
2026-04-15 21:53 41.19935 40.39434 13239 ft 325 kts 65°
2026-04-15 21:53 41.20309 40.42407 12864 ft 332 kts 89°
2026-04-15 21:53 41.20158 40.45462 12559 ft 331 kts 91°
2026-04-15 21:53 41.20012 40.48507 12228 ft 330 kts 91°
2026-04-15 21:54 41.19858 40.51545 11887 ft 329 kts 91°
2026-04-15 21:54 41.19715 40.54531 11550 ft 327 kts 89°
2026-04-15 21:54 41.19997 40.57486 11199 ft 321 kts 70°
2026-04-15 21:54 41.20745 40.60229 11017 ft 312 kts 66°
2026-04-15 21:55 41.21478 40.62898 10885 ft 303 kts 66°
2026-04-15 21:55 41.22200 40.65520 10540 ft 303 kts 67°
2026-04-15 21:55 41.22943 40.68164 10107 ft 307 kts 66°
2026-04-15 21:55 41.23691 40.70788 9626 ft 302 kts 66°
2026-04-15 21:56 41.24436 40.73373 9151 ft 296 kts 66°
2026-04-15 21:56 41.25174 40.75905 8694 ft 291 kts 67°
2026-04-15 21:56 41.25905 40.78382 8237 ft 286 kts 66°
2026-04-15 21:56 41.26634 40.80823 7795 ft 282 kts 67°
2026-04-15 21:57 41.27388 40.83202 7344 ft 277 kts 60°
2026-04-15 21:57 41.28558 40.85178 6908 ft 270 kts 38°
2026-04-15 21:57 41.30125 40.86410 6472 ft 263 kts 17°
2026-04-15 21:57 41.31900 40.86779 6013 ft 256 kts 354°
2026-04-15 21:58 41.33621 40.86218 5585 ft 256 kts 332°
2026-04-15 21:58 41.35035 40.84827 5275 ft 252 kts 309°
2026-04-15 21:58 41.35907 40.82851 5021 ft 246 kts 286°
2026-04-15 21:58 41.36108 40.80639 4789 ft 239 kts 263°
2026-04-15 21:59 41.35668 40.78542 4594 ft 234 kts 247°
2026-04-15 21:59 41.35014 40.76580 4386 ft 229 kts 246°
2026-04-15 21:59 41.34362 40.74670 4218 ft 224 kts 246°
2026-04-15 21:59 41.33723 40.72801 4027 ft 221 kts 245°
2026-04-15 22:00 41.33087 40.70944 3831 ft 220 kts 245°
2026-04-15 22:00 41.32453 40.69095 3641 ft 220 kts 246°
2026-04-15 22:00 41.31819 40.67245 3501 ft 219 kts 246°
2026-04-15 22:00 41.31187 40.65398 3369 ft 219 kts 246°
2026-04-15 22:01 41.30556 40.63549 3242 ft 220 kts 246°
2026-04-15 22:01 41.29806 40.61815 3100 ft 219 kts 228°
2026-04-15 22:01 41.28595 40.60613 2967 ft 219 kts 206°
2026-04-15 22:01 41.27205 40.59772 2885 ft 219 kts 202°
2026-04-15 22:02 41.25802 40.58961 2815 ft 220 kts 202°
2026-04-15 22:02 41.24416 40.58154 2751 ft 210 kts 203°
2026-04-15 22:02 41.23112 40.57387 2673 ft 201 kts 202°
2026-04-15 22:02 41.21844 40.56625 2593 ft 199 kts 203°
2026-04-15 22:03 41.20556 40.55977 2561 ft 197 kts 187°
2026-04-15 22:03 41.19213 40.56101 2555 ft 194 kts 162°
2026-04-15 22:03 41.17942 40.56703 2604 ft 194 kts 157°
2026-04-15 22:03 41.16694 40.57342 2617 ft 194 kts 156°
2026-04-15 22:04 41.15419 40.57999 2601 ft 194 kts 156°
2026-04-15 22:04 41.14359 40.59044 2550 ft 190 kts 124°
2026-04-15 22:04 41.13954 40.60669 2545 ft 187 kts 90°
2026-04-15 22:04 41.14078 40.62382 2618 ft 191 kts 81°
2026-04-15 22:05 41.14329 40.64117 2645 ft 191 kts 78°
2026-04-15 22:05 41.14609 40.65785 2610 ft 177 kts 77°
2026-04-15 22:05 41.14846 40.67368 2342 ft 180 kts 82°
2026-04-15 22:05 41.14952 40.69049 1881 ft 186 kts 91°
2026-04-15 22:06 41.14925 40.70762 1523 ft 182 kts 88°
2026-04-15 22:06 41.15047 40.72393 1245 ft 176 kts 82°
2026-04-15 22:06 41.15263 40.73979 950 ft 175 kts 76°
2026-04-15 22:06 41.15600 40.75573 804 ft 171 kts 71°
2026-04-15 22:07 41.15946 40.76954 739 ft 147 kts 72°
2026-04-15 22:07 41.16254 40.78203 660 ft 143 kts 71°
2026-04-15 22:07 41.16613 40.79478 603 ft 144 kts 71°
2026-04-15 22:07 41.16916 40.80706 363 ft 142 kts 73°
2026-04-15 22:08 41.17242 40.81981 227 ft 143 kts 72°
2026-04-15 22:08 41.17569 40.83262 85 ft 145 kts 72°
2026-04-15 22:08 41.17861 40.84400 26 ft 93 kts 73°
2026-04-15 22:08 41.17996 40.84934 26 ft 56 kts 72°
2026-04-15 22:09 41.18089 40.85286 29 ft 18 kts 70°
2026-04-15 22:09 41.18140 40.85442 29 ft 17 kts 44°
2026-04-15 22:09 41.18179 40.85514 28 ft 6 kts 133°
2026-04-15 22:09 41.18148 40.85503 28 ft 5 kts 242°
2026-04-15 22:10 41.18130 40.85430 29 ft 13 kts 252°
2026-04-15 22:10 41.18086 40.85271 28 ft 22 kts 250°
2026-04-15 22:10 41.18042 40.85109 28 ft 15 kts 250°
2026-04-15 22:10 41.18004 40.84964 27 ft 18 kts 251°
2026-04-15 22:11 41.17963 40.84801 26 ft 20 kts 251°
2026-04-15 22:11 41.17917 40.84624 27 ft 21 kts 252°
2026-04-15 22:11 41.17880 40.84481 27 ft 13 kts 251°
2026-04-15 22:11 41.17843 40.84424 26 ft 9 kts 201°
2026-04-15 22:12 41.17781 40.84431 27 ft 10 kts 163°
2026-04-15 22:12 41.17722 40.84456 28 ft 7 kts 162°
2026-04-15 22:12 41.17671 40.84479 28 ft 9 kts 160°
2026-04-15 22:12 41.17633 40.84535 28 ft 6 kts 84°
2026-04-15 22:13 41.17633 40.84547 28 ft 2 kts 92°
2026-04-15 22:13 41.17619 40.84577 28 ft 5 kts 136°
2026-04-15 22:13 41.17601 40.84584 28 ft 2 kts 176°
2026-04-15 22:13 41.17588 40.84587 28 ft 0 kts 164°
2026-04-15 22:14 41.17586 40.84588 28 ft 1 kts 164°
2026-04-15 22:14 41.17579 40.84590 28 ft 0 kts 165°
2026-04-15 22:14 41.17575 40.84592 28 ft 0 kts 165°